TimeMDT,TemperatureF,Dew PointF,Humidity,Sea Level PressureIn,VisibilityMPH,Wind Direction,Wind SpeedMPH,Gust SpeedMPH,PrecipitationIn,Events,Conditions,WindDirDegrees,DateUTC
12:35 AM,64.4,62.6,94,29.95,10.0,SSE,11.5,-,N/A,,Clear,150,2012-10-13 06:35:00
12:55 AM,64.4,62.6,94,29.95,10.0,SSE,10.4,-,N/A,,Clear,150,2012-10-13 06:55:00
1:15 AM,64.4,62.6,94,29.95,10.0,SSE,10.4,-,N/A,,Clear,160,2012-10-13 07:15:00
1:35 AM,62.6,62.6,100,29.95,10.0,South,10.4,-,N/A,,Clear,170,2012-10-13 07:35:00
1:55 AM,62.6,62.6,100,29.95,10.0,SSW,9.2,-,N/A,,Clear,200,2012-10-13 07:55:00
2:15 AM,62.6,62.6,100,29.95,10.0,South,11.5,-,N/A,,Clear,170,2012-10-13 08:15:00
2:35 AM,62.6,62.6,100,29.95,10.0,SSE,12.7,16.1,N/A,,Clear,160,2012-10-13 08:35:00
2:55 AM,62.6,62.6,100,29.95,10.0,South,12.7,-,N/A,,Clear,170,2012-10-13 08:55:00
3:15 AM,60.8,60.8,100,29.96,10.0,WSW,8.1,-,N/A,,Clear,250,2012-10-13 09:15:00
4:35 AM,60.8,44.6,55,29.97,10.0,SSW,12.7,-,N/A,,Clear,210,2012-10-13 10:35:00
4:55 AM,60.8,42.8,52,29.98,10.0,SW,12.7,-,N/A,,Clear,220,2012-10-13 10:55:00
5:15 AM,59.0,41.0,51,29.98,10.0,SSW,12.7,-,N/A,,Clear,210,2012-10-13 11:15:00
5:35 AM,57.2,42.8,59,29.99,10.0,SSW,12.7,-,N/A,,Clear,210,2012-10-13 11:35:00
5:55 AM,57.2,42.8,59,29.99,10.0,SW,11.5,-,N/A,,Clear,230,2012-10-13 11:55:00
6:15 AM,57.2,41.0,55,29.99,10.0,SW,12.7,-,N/A,,Clear,220,2012-10-13 12:15:00
6:35 AM,55.4,42.8,63,30.00,10.0,WSW,10.4,-,N/A,,Clear,240,2012-10-13 12:35:00
6:55 AM,55.4,41.0,58,30.01,10.0,WSW,9.2,-,N/A,,Clear,250,2012-10-13 12:55:00
7:15 AM,55.4,42.8,63,30.01,10.0,West,8.1,-,N/A,,Clear,260,2012-10-13 13:15:00
7:55 AM,57.2,46.4,67,30.04,10.0,North,9.2,-,N/A,,Clear,350,2012-10-13 13:55:00
8:55 AM,60.8,41.0,48,30.06,10.0,NNW,10.4,-,N/A,,Clear,340,2012-10-13 14:55:00
9:15 AM,60.8,39.2,45,30.06,10.0,North,4.6,-,N/A,,Clear,360,2012-10-13 15:15:00
10:15 AM,62.6,41.0,45,30.05,10.0,NNE,12.7,-,N/A,,Clear,30,2012-10-13 16:15:00
10:35 AM,62.6,41.0,45,30.05,10.0,NNE,11.5,-,N/A,,Clear,30,2012-10-13 16:35:00
10:55 AM,62.6,41.0,45,30.05,10.0,NNE,11.5,-,N/A,,Clear,30,2012-10-13 16:55:00
11:35 AM,64.4,41.0,42,30.04,10.0,NNE,11.5,-,N/A,,Clear,30,2012-10-13 17:35:00
11:55 AM,64.4,41.0,42,30.04,10.0,NNE,9.2,-,N/A,,Clear,30,2012-10-13 17:55:00
12:15 PM,66.2,41.0,40,30.03,10.0,NE,10.4,-,N/A,,Clear,50,2012-10-13 18:15:00
12:35 PM,66.2,41.0,40,30.02,10.0,NNE,9.2,-,N/A,,Clear,30,2012-10-13 18:35:00
12:55 PM,68.0,39.2,35,30.01,10.0,NE,11.5,-,N/A,,Clear,40,2012-10-13 18:55:00
1:15 PM,68.0,37.4,33,30.01,10.0,NE,11.5,-,N/A,,Clear,40,2012-10-13 19:15:00
1:35 PM,69.8,39.2,33,29.99,10.0,NNE,11.5,-,N/A,,Clear,30,2012-10-13 19:35:00
1:55 PM,71.6,39.2,31,29.99,10.0,NE,11.5,-,N/A,,Clear,40,2012-10-13 19:55:00
2:15 PM,71.6,37.4,29,29.97,10.0,ENE,13.8,17.3,N/A,,Clear,60,2012-10-13 20:15:00
2:35 PM,71.6,37.4,29,29.97,10.0,ENE,10.4,-,N/A,,Clear,60,2012-10-13 20:35:00
2:55 PM,71.6,37.4,29,29.96,10.0,NE,9.2,-,N/A,,Clear,50,2012-10-13 20:55:00
3:15 PM,71.6,35.6,27,29.96,10.0,NE,8.1,-,N/A,,Clear,50,2012-10-13 21:15:00
3:55 PM,73.4,35.6,25,29.96,10.0,ENE,10.4,-,N/A,,Clear,60,2012-10-13 21:55:00
4:35 PM,73.4,35.6,25,29.97,10.0,NE,6.9,-,N/A,,Clear,50,2012-10-13 22:35:00
4:55 PM,73.4,35.6,25,29.97,10.0,NE,4.6,-,N/A,,Clear,50,2012-10-13 22:55:00
5:15 PM,73.4,33.8,23,29.97,10.0,NE,6.9,-,N/A,,Clear,50,2012-10-13 23:15:00
5:35 PM,73.4,35.6,25,29.98,10.0,NE,6.9,-,N/A,,Clear,50,2012-10-13 23:35:00
5:55 PM,71.6,37.4,29,29.98,10.0,ENE,3.5,-,N/A,,Clear,70,2012-10-13 23:55:00
6:15 PM,71.6,37.4,29,29.98,10.0,ESE,3.5,-,N/A,,Clear,120,2012-10-14 00:15:00
6:35 PM,69.8,37.4,31,29.99,10.0,East,3.5,-,N/A,,Clear,90,2012-10-14 00:35:00
7:15 PM,62.6,44.6,52,30.00,10.0,SSW,4.6,-,N/A,,Clear,210,2012-10-14 01:15:00
8:15 PM,64.4,39.2,40,30.04,10.0,Calm,Calm,-,N/A,,Clear,0,2012-10-14 02:15:00
8:35 PM,60.8,41.0,48,30.05,10.0,West,3.5,-,N/A,,Clear,260,2012-10-14 02:35:00
8:55 PM,59.0,44.6,59,30.06,10.0,West,9.2,-,N/A,,Clear,260,2012-10-14 02:55:00
9:15 PM,59.0,42.8,55,30.06,10.0,West,8.1,-,N/A,,Clear,260,2012-10-14 03:15:00
9:35 PM,57.2,44.6,63,30.07,10.0,West,9.2,-,N/A,,Clear,260,2012-10-14 03:35:00
9:55 PM,57.2,46.4,67,30.08,10.0,West,8.1,-,N/A,,Clear,270,2012-10-14 03:55:00
10:15 PM,57.2,46.4,67,30.08,10.0,WNW,6.9,-,N/A,,Clear,300,2012-10-14 04:15:00
10:35 PM,59.0,41.0,51,30.09,10.0,West,8.1,-,N/A,,Clear,270,2012-10-14 04:35:00
11:15 PM,55.4,41.0,58,30.10,10.0,West,8.1,-,N/A,,Clear,260,2012-10-14 05:15:00
11:35 PM,55.4,41.0,58,30.10,10.0,West,12.7,-,N/A,,Clear,270,2012-10-14 05:35:00
11:55 PM,55.4,41.0,58,30.11,10.0,West,12.7,-,N/A,,Clear,280,2012-10-14 05:55:00